Wind_Speed
9 8 8 7 7 7 6 6 6 5 5 5 5 5 5 5 6 6 6 7 7 7 8 8 9 9 10 10 10 10 10 11 11 12 12 12 13 13 13 13 14 14 14
11 10 9 9 9 8 8 8 7 7 7 7 7 7 7 7 7 8 8 9 9 9 9 10 10 11 11 12 12 12 12 13 13 13 14 14 15 15 15 15 16 16 16
13 12 11 11 10 10 10 10 9 9 9 8 8 8 8 8 9 9 9 10 10 11 11 12 12 13 13 14 14 14 15 15 15 15 15 16 16 17 17 17 17 18 18
15 14 13 13 12 12 12 11 11 11 10 10 10 10 10 10 10 10 11 11 12 13 13 14 14 14 14 15 15 16 16 16 16 17 17 17 17 18 18 18 18 19 19
17 16 15 14 14 13 13 13 13 12 12 12 12 12 12 12 12 12 13 13 13 14 14 14 14 14 14 15 15 16 16 17 17 17 18 18 18 19 19 19 20 20 21
19 18 17 16 16 15 15 15 14 14 14 14 14 14 14 14 14 14 14 14 14 14 14 15 15 15 16 16 17 17 18 18 18 19 19 19 20 20 21 21 22 22 22
20 19 19 18 17 17 16 16 16 16 16 15 15 15 15 15 15 15 15 15 15 15 15 16 16 17 18 18 19 19 19 19 20 21 21 21 22 22 22 23 23 24 24
21 21 20 19 19 18 18 17 17 17 17 17 17 16 16 16 16 16 16 16 16 16 17 17 18 18 19 19 20 20 21 21 22 23 23 23 23 24 24 24 25 25 25
22 22 21 21 20 20 19 19 19 18 18 18 18 18 17 17 17 17 17 17 17 18 18 18 19 19 20 20 21 22 22 23 24 24 25 25 26 26 26 27 27 27 27
24 23 22 22 21 21 20 20 20 19 19 19 19 19 19 18 18 18 18 18 18 19 19 19 19 20 21 21 22 23 23 24 25 25 26 27 27 27 28 28 29 29 29
25 25 24 23 22 21 21 21 21 21 21 20 20 20 20 20 20 20 20 20 20 20 20 21 21 22 22 23 23 24 25 25 26 27 27 28 29 29 29 29 29 30 30
26 26 25 24 23 22 22 22 22 22 22 22 22 22 21 21 21 21 21 21 21 22 22 22 23 24 24 25 25 26 26 27 27 27 28 28 29 29 30 30 30 30 30
27 27 26 25 24 23 23 24 23 23 23 23 23 23 23 23 23 23 23 23 23 23 24 24 25 25 25 26 26 27 27 28 28 27 28 28 29 30 30 30 30 31 31
28 28 27 26 25 24 24 25 25 25 24 24 25 24 24 24 25 25 24 24 24 25 25 26 26 26 26 27 27 27 27 27 27 28 28 29 29 29 29 29 30 31 31
29 28 27 27 26 26 25 26 26 25 25 26 26 26 26 26 26 26 26 26 26 26 26 27 27 27 28 28 27 27 27 27 28 28 28 29 29 29 29 30 30 31 31
30 29 28 28 27 27 27 27 27 27 26 27 27 27 27 28 28 27 27 27 27 27 27 28 29 29 29 28 28 28 28 29 29 28 28 29 29 30 30 30 31 32 32
30 29 29 29 29 28 28 28 28 28 28 28 28 28 28 29 29 28 28 28 28 29 29 30 29 28 28 29 29 29 29 29 29 29 30 30 30 30 31 31 32 33 34
30 30 30 29 29 29 29 29 28 29 29 29 29 29 30 30 30 30 30 30 30 30 31 30 29 29 29 29 29 30 29 29 29 30 31 31 31 31 32 32 33 34 35
30 30 31 30 30 30 30 30 30 30 30 30 30 30 30 31 31 31 31 31 31 31 30 30 30 29 30 30 31 30 30 30 31 31 32 32 33 33 34 35 35 36 36
29 29 30 31 31 31 31 31 30 30 30 31 31 32 31 32 32 32 32 32 32 31 31 31 31 31 31 31 31 31 32 32 33 33 34 34 35 36 36 37 37 38 38
30 30 30 30 31 32 32 31 32 32 32 31 31 32 33 33 33 33 33 32 32 32 32 32 32 32 32 32 33 33 34 34 34 35 36 36 37 37 38 39 39 39 40
29 29 31 32 32 33 33 33 33 34 34 33 33 33 33 34 34 33 33 32 33 33 32 32 32 31 32 33 33 34 34 34 35 37 37 38 38 38 39 40 41 41 42
28 29 29 31 31 33 34 34 35 35 35 34 35 34 34 34 34 33 33 33 33 32 32 32 32 33 34 35 35 36 36 37 37 38 38 39 40 41 41 42 43 43 44
29 30 31 31 32 32 33 35 36 37 37 36 36 35 36 35 35 34 33 33 33 33 33 34 35 36 36 37 38 39 39 39 40 40 40 41 42 43 44 45 45 46 47
29 30 31 32 32 33 34 35 35 36 36 36 35 36 35 36 35 34 34 34 35 35 35 36 37 38 38 39 40 40 41 42 42 43 43 44 45 46 46 47 47 48 48
30 31 32 33 34 34 34 34 34 34 35 36 36 36 35 35 35 35 35 36 36 37 38 39 39 40 41 42 42 43 43 44 45 45 46 47 48 48 49 49 49 49 49
Wind_Direction
240 242 243 244 245 246 248 256 261 263 266 270 275 280 288 294 297 301 305 305 304 300 299 296 292 288 288 287 286 284 283 282 283 283 282 282 281 280 278 277 277 276 274
242 244 244 245 246 248 250 255 258 262 266 267 271 277 282 287 290 294 297 299 298 297 295 293 290 287 286 284 284 284 283 282 282 282 281 281 280 279 278 277 275 275 274
242 244 246 248 249 249 251 254 257 260 265 268 272 277 282 286 289 291 294 295 295 294 293 291 288 286 285 283 283 283 282 281 280 281 282 281 279 278 277 277 276 275 274
242 245 247 249 249 251 251 254 258 261 264 268 272 277 282 286 289 290 292 294 294 293 291 290 288 287 285 284 284 283 282 280 279 279 279 280 279 279 278 278 276 275 274
242 245 247 249 250 251 252 255 258 261 264 268 272 276 280 283 286 289 291 293 294 293 291 290 289 288 286 285 284 284 283 281 280 280 279 279 279 279 279 278 277 276 275
241 244 247 249 250 251 254 255 257 260 265 268 271 274 278 282 284 287 289 290 291 293 292 290 288 287 286 286 286 286 284 282 282 282 281 280 279 278 279 278 277 276 276
239 243 246 249 250 251 253 255 258 260 264 268 271 275 277 280 283 284 286 288 290 292 292 291 290 288 286 286 286 287 286 284 283 283 283 282 280 279 278 277 277 276 275
238 241 244 247 250 251 252 255 258 261 263 266 271 274 277 279 282 284 286 288 290 291 291 291 291 290 288 286 285 285 285 285 284 284 283 282 282 280 278 278 277 276 276
238 240 243 246 249 250 253 255 258 261 263 266 269 272 275 277 279 282 285 287 289 290 290 291 290 290 289 288 286 286 285 285 284 284 283 282 282 281 279 277 276 276 275
237 239 242 245 248 250 253 256 258 260 262 265 267 271 273 275 277 281 284 286 287 289 290 291 291 290 290 288 287 286 286 286 285 285 283 282 282 281 279 278 276 276 276
236 238 241 244 247 250 253 256 258 260 262 264 266 270 272 274 277 280 283 285 286 288 289 290 290 290 290 289 287 286 287 287 286 285 284 282 282 281 280 278 277 276 275
236 238 241 245 248 252 255 257 258 260 262 264 267 269 271 274 276 278 281 283 285 286 288 289 289 290 289 288 287 287 287 287 287 286 285 284 283 282 280 279 277 276 275
236 238 241 245 248 252 256 257 258 260 262 264 267 268 270 273 276 278 280 281 283 285 287 288 289 289 290 290 290 290 289 288 287 286 285 285 284 282 281 279 277 276 275
235 238 242 245 248 252 255 257 258 259 261 264 267 268 270 273 275 277 279 281 282 284 287 288 288 288 290 290 290 290 289 288 288 288 287 287 285 282 280 279 279 278 276
235 238 242 245 248 252 254 257 258 259 262 264 267 268 270 272 274 276 278 279 281 283 286 288 289 289 290 290 290 290 290 289 289 289 288 287 285 283 281 280 280 279 277
236 239 242 245 249 252 254 256 258 261 264 266 267 269 271 273 275 276 277 279 281 284 286 288 289 289 289 289 289 290 290 290 289 289 289 288 286 283 282 281 281 280 278
237 240 243 246 249 252 254 256 259 262 264 266 267 270 272 274 274 275 276 278 281 283 286 288 289 288 288 289 289 290 291 290 289 289 289 288 286 285 283 282 281 281 279
238 241 243 246 248 250 253 256 258 261 264 266 268 271 272 274 274 274 276 278 281 283 285 286 287 288 288 289 290 289 289 289 289 290 290 288 286 285 284 283 282 281 280
240 242 244 246 248 250 252 256 258 260 264 266 269 271 273 273 273 274 275 278 280 283 284 285 286 287 288 289 290 290 289 289 289 289 289 287 286 285 284 283 282 281 281
241 243 244 247 248 251 253 256 259 262 266 269 270 270 272 274 274 275 276 278 280 281 283 284 285 287 288 289 289 289 289 289 288 288 287 286 284 283 283 283 283 281 280
242 244 247 249 251 253 256 258 262 265 268 271 273 271 271 273 274 275 275 276 279 280 281 282 285 287 288 288 288 289 289 289 288 288 287 286 285 283 283 283 283 281 280
244 246 248 249 253 255 257 260 264 267 269 270 270 272 273 273 274 274 275 276 277 279 280 282 284 286 289 290 289 289 290 290 290 289 288 287 286 285 284 283 283 282 281
245 246 248 250 253 256 258 261 264 267 270 271 271 271 273 274 275 276 276 276 278 279 280 282 283 286 288 290 290 290 290 290 290 290 288 287 286 285 284 283 283 282 282
248 250 253 256 257 258 260 263 265 266 268 271 271 272 272 274 275 277 277 277 278 280 281 282 284 286 288 290 291 291 291 291 291 290 289 288 287 285 284 284 283 282 281
251 255 257 259 260 261 264 266 267 267 268 270 273 274 274 274 275 276 277 278 279 281 281 282 284 286 288 289 290 291 291 292 292 291 290 289 288 287 286 285 285 284 283
254 257 260 262 263 265 267 268 268 269 271 273 275 277 276 276 276 276 277 278 280 281 283 283 285 287 289 290 291 291 291 292 292 291 291 290 288 288 287 287 286 285 284
Height
5874 5875 5875 5875 5875 5875 5875 5875 5875 5875 5875 5875 5874 5874 5874 5873 5872 5872 5871 5870 5870 5869 5869 5868 5868 5867 5867 5866 5866 5865 5865 5865 5864 5864 5864 5863 5863 5862 5862 5862 5861 5861 5860
5872 5872 5873 5873 5873 5873 5873 5873 5873 5873 5873 5873 5873 5873 5872 5872 5871 5870 5870 5869 5868 5867 5867 5866 5865 5865 5864 5864 5863 5863 5863 5862 5862 5861 5861 5860 5860 5859 5859 5859 5858 5858 5858
5869 5870 5870 5871 5871 5871 5871 5872 5872 5872 5872 5871 5871 5871 5870 5870 5869 5868 5868 5867 5866 5865 5864 5864 5863 5862 5862 5861 5861 5860 5860 5859 5859 5858 5858 5857 5857 5856 5856 5856 5855 5855 5854
5866 5867 5867 5868 5868 5869 5869 5869 5870 5870 5870 5869 5869 5869 5868 5868 5867 5866 5865 5865 5864 5863 5862 5861 5860 5859 5859 5858 5857 5857 5856 5856 5855 5855 5854 5854 5853 5853 5852 5852 5851 5851 5851
5863 5863 5864 5865 5865 5866 5866 5867 5867 5867 5867 5867 5867 5866 5866 5865 5865 5864 5863 5862 5861 5860 5859 5858 5857 5856 5855 5855 5854 5853 5853 5852 5852 5851 5851 5850 5849 5849 5848 5848 5847 5847 5847
5859 5860 5861 5861 5862 5863 5863 5864 5864 5864 5864 5864 5864 5864 5863 5863 5862 5861 5860 5859 5858 5857 5856 5855 5854 5853 5852 5851 5850 5850 5849 5848 5848 5847 5846 5846 5845 5845 5844 5844 5843 5843 5842
5855 5856 5857 5858 5859 5859 5860 5860 5861 5861 5861 5861 5861 5861 5860 5860 5859 5858 5857 5856 5855 5854 5853 5852 5850 5849 5848 5847 5847 5846 5845 5844 5843 5843 5842 5841 5841 5840 5840 5839 5838 5838 5838
5851 5852 5853 5854 5855 5856 5856 5857 5857 5857 5857 5858 5858 5857 5857 5856 5856 5855 5854 5853 5852 5851 5850 5848 5847 5846 5844 5843 5842 5842 5841 5840 5839 5838 5837 5837 5836 5835 5835 5834 5833 5833 5832
5846 5848 5849 5850 5851 5852 5852 5853 5853 5853 5854 5854 5854 5854 5853 5853 5852 5852 5851 5850 5849 5847 5846 5845 5843 5842 5840 5839 5838 5837 5836 5835 5834 5833 5832 5831 5831 5830 5829 5828 5828 5827 5827
5841 5843 5845 5846 5847 5847 5848 5848 5849 5849 5850 5850 5850 5850 5850 5849 5849 5848 5847 5846 5845 5844 5842 5841 5839 5837 5836 5835 5833 5832 5831 5830 5829 5827 5827 5826 5825 5824 5823 5823 5822 5821 5821
5836 5838 5840 5841 5842 5843 5843 5844 5845 5845 5845 5846 5846 5846 5846 5845 5845 5844 5843 5842 5841 5839 5838 5837 5835 5833 5831 5830 5828 5827 5826 5824 5823 5822 5821 5820 5819 5818 5817 5816 5816 5815 5815
5832 5834 5835 5837 5838 5839 5839 5840 5840 5841 5841 5841 5841 5841 5841 5841 5840 5839 5838 5838 5836 5835 5834 5832 5831 5829 5827 5825 5823 5822 5820 5819 5817 5816 5815 5813 5812 5811 5811 5810 5809 5809 5808
5827 5829 5830 5832 5833 5834 5835 5835 5835 5836 5836 5837 5837 5837 5836 5836 5835 5835 5834 5833 5832 5831 5829 5827 5826 5824 5821 5819 5818 5816 5814 5813 5812 5810 5809 5807 5806 5805 5804 5803 5802 5802 5801
5821 5824 5825 5827 5828 5829 5830 5830 5831 5831 5832 5832 5832 5832 5831 5831 5830 5829 5829 5828 5827 5825 5824 5822 5820 5818 5816 5814 5812 5810 5809 5807 5806 5804 5803 5801 5800 5798 5797 5796 5796 5795 5794
5816 5818 5820 5822 5823 5824 5824 5825 5825 5826 5826 5826 5826 5826 5826 5825 5825 5824 5823 5822 5821 5820 5818 5816 5814 5812 5810 5808 5807 5805 5803 5801 5800 5798 5797 5795 5793 5792 5791 5790 5789 5788 5787
5810 5812 5814 5816 5817 5818 5819 5820 5820 5820 5821 5821 5821 5821 5820 5820 5819 5818 5817 5816 5815 5814 5812 5810 5808 5806 5805 5802 5801 5799 5797 5795 5794 5792 5790 5788 5786 5785 5784 5783 5782 5781 5780
5804 5806 5808 5810 5811 5813 5813 5814 5814 5814 5815 5815 5815 5815 5814 5814 5813 5812 5811 5810 5809 5808 5806 5804 5802 5800 5798 5796 5795 5793 5791 5789 5787 5785 5783 5782 5780 5778 5777 5775 5774 5773 5772
5798 5800 5802 5804 5805 5806 5807 5808 5808 5808 5808 5808 5808 5808 5808 5807 5806 5806 5805 5804 5802 5801 5799 5797 5795 5794 5792 5790 5788 5786 5784 5782 5780 5779 5776 5774 5773 5771 5769 5768 5766 5765 5764
5792 5794 5796 5798 5799 5800 5801 5801 5802 5802 5802 5802 5801 5801 5801 5800 5800 5799 5798 5797 5796 5794 5793 5791 5789 5787 5785 5783 5781 5779 5777 5775 5773 5771 5769 5767 5765 5763 5762 5760 5758 5757 5755
5786 5788 5789 5791 5792 5793 5794 5795 5795 5795 5795 5795 5794 5794 5794 5793 5792 5792 5791 5790 5788 5787 5786 5784 5782 5780 5778 5776 5774 5772 5770 5768 5766 5764 5762 5759 5757 5755 5753 5751 5750 5748 5746
5779 5781 5783 5785 5786 5787 5787 5787 5788 5788 5787 5787 5787 5787 5786 5785 5785 5784 5783 5782 5781 5780 5778 5776 5774 5772 5770 5769 5767 5765 5762 5760 5757 5755 5753 5751 5749 5746 5744 5742 5740 5738 5737
5773 5775 5777 5778 5779 5780 5780 5780 5780 5780 5780 5780 5780 5779 5778 5778 5777 5776 5775 5774 5773 5772 5770 5768 5767 5765 5763 5761 5759 5756 5754 5752 5749 5746 5744 5742 5739 5737 5735 5733 5730 5728 5726
5767 5768 5770 5771 5772 5772 5773 5773 5773 5773 5772 5772 5772 5772 5770 5770 5769 5768 5767 5766 5764 5763 5762 5760 5759 5757 5755 5753 5750 5748 5745 5743 5741 5738 5734 5732 5729 5727 5725 5722 5720 5718 5715
5760 5762 5763 5764 5764 5765 5765 5766 5765 5765 5765 5764 5764 5763 5762 5761 5761 5760 5759 5758 5756 5755 5754 5752 5751 5749 5747 5744 5741 5738 5736 5733 5730 5728 5725 5722 5719 5716 5714 5711 5709 5706 5704
5754 5755 5756 5757 5757 5757 5758 5757 5757 5757 5757 5756 5755 5755 5754 5753 5752 5752 5751 5750 5749 5747 5745 5743 5742 5740 5737 5735 5732 5729 5726 5723 5719 5717 5715 5711 5708 5705 5702 5699 5697 5694 5692
5748 5748 5749 5749 5750 5749 5750 5749 5749 5749 5748 5747 5747 5746 5745 5744 5744 5743 5742 5741 5740 5738 5737 5734 5732 5730 5727 5725 5722 5719 5716 5712 5709 5705 5703 5699 5696 5693 5690 5687 5684 5681 5679